DW6036 Weather Reports


time (UTC)temp
C
wind
direction
speed
KPH
gust
KPH
rain 1hr
cm
rain 24hr
cm
rain mn
cm
humidity
%
barometer
mb
20260502190004 22 86 16.1 27.4 0.00 3.10 0.03 49 1018.1
20260502184605 22 351 11.3 24.1 0.00 4.42 0.03 52 1018.1
20260502184502 22 335 9.7 27.4 0.00 4.42 0.03 52 1018.1
20260502183100 22 54 11.3 27.4 0.00 4.42 0.03 54 1018.3
20260502181558 22 353 8.0 30.6 0.00 4.42 0.03 56 1018.5
20260502163039 20 8 16.1 29.0 0.00 4.75 0.03 69 1019.1
20260502161537 19 49 11.3 24.1 0.00 4.75 0.03 73 1019.1
20260502151523 17 79 8.0 19.3 0.00 4.80 0.03 81 1018.9
20260502123043 12 323 3.2 11.3 0.00 5.28 0.03 95 1017.1
20260502121540 12 78 6.4 12.9 0.00 5.28 0.03 95 1016.7
20260502114536 11 36 4.8 14.5 0.00 5.31 0.03 95 1016.4
20260502113039 11 56 6.4 14.5 0.00 5.31 0.03 95 1016.3
20260502113005 11 16 4.8 14.5 0.00 5.31 0.03 95 1016.3
20260502111532 11 45 3.2 16.1 0.00 5.31 0.03 94 1016.1
20260502110035 11 53 4.8 16.1 0.00 5.31 0.03 94 1016.0
20260502104533 11 44 3.2 9.7 0.00 5.31 0.03 94 1015.8
20260502103026 11 59 6.4 14.5 0.00 5.31 0.03 94 1015.5
20260502101524 11 25 4.8 16.1 0.00 5.31 0.03 93 1015.4
20260502091521 12 64 11.3 19.3 0.00 5.33 0.03 92 1014.9
20260502071508 11 51 9.7 22.5 0.00 5.82 0.03 97 1014.9
20260502070006 11 59 8.0 19.3 0.00 5.82 0.03 97 1015.1
20260502064506 11 51 9.7 22.5 0.00 5.82 0.03 96 1015.2
20260502063002 11 47 9.7 19.3 0.00 5.82 0.03 97 1015.4
20260502061502 12 49 9.7 20.9 0.03 5.82 0.03 97 1015.5
20260502060059 12 81 8.0 20.9 0.03 5.82 0.03 97 1015.4
20260502054606 12 63 11.3 24.1 0.03 5.82 0.03 98 1015.3
20260502053053 12 89 8.0 20.9 0.05 5.82 0.03 98 1014.7
20260502051553 12 60 11.3 19.3 0.03 5.82 0.00 99 1014.4
20260502050049 12 354 6.4 20.9 0.03 5.82 0.00 100 1014.5
20260502044546 12 61 9.7 20.9 0.03 5.82 5.82 100 1014.2
20260502043058 12 65 9.7 22.5 0.00 5.77 5.77 100 1014.0
20260502041609 12 40 11.3 19.3 0.00 5.77 5.77 100 1014.1
20260502040051 12 50 8.0 22.5 0.03 5.77 5.77 100 1014.1
20260502033045 12 48 6.4 19.3 0.03 5.77 5.77 100 1014.2
20260502031537 12 34 9.7 19.3 0.03 5.77 5.77 100 1014.3
20260502030049 12 60 4.8 16.1 0.00 5.77 5.77 100 1013.9
20260502024532 12 67 8.0 22.5 0.00 5.77 5.77 100 1013.4
20260502023045 12 360 12.9 24.1 0.00 5.77 5.77 100 1012.8
20260502021528 12 49 9.7 20.9 0.00 5.77 5.77 100 1012.8
20260502020026 12 32 17.7 29.0 0.00 5.77 5.77 100 1011.7
20260502014529 12 74 12.9 20.9 0.00 5.77 5.77 100 1011.5
20260502013021 12 317 12.9 24.1 0.00 5.77 5.77 100 1011.6
20260502011519 13 58 14.5 27.4 0.00 5.77 5.77 100 1011.1
20260502010016 13 58 12.9 29.0 0.00 5.77 5.77 100 1010.8
20260502004513 13 40 11.3 29.0 0.03 5.77 5.77 100 1010.4
20260502003011 13 51 11.3 27.4 0.05 5.77 5.77 100 1010.0
20260502001510 14 69 8.0 20.9 0.33 5.77 5.77 100 1010.3
20260502000056 14 48 11.3 20.9 0.48 5.77 5.77 100 1010.1
20260501234636 13 34 12.9 22.5 0.61 5.71 5.71 100 1009.4
20260501231533 14 67 4.8 16.1 0.79 5.44 5.44 100 1011.9
20260501230114 14 26 4.8 12.9 0.97 5.28 5.28 100 1012.3
20260501224609 14 65 8.0 14.5 1.02 5.13 5.13 100 1012.2
20260501223102 14 41 3.2 6.4 0.99 4.88 4.88 100 1011.7
20260501221617 14 77 1.6 22.5 1.17 4.65 4.65 100 1011.9
20260501220104 14 67 8.0 12.9 1.12 4.32 4.32 100 1010.9
20260501214634 14 37 11.3 22.5 1.07 4.11 4.11 100 1010.3
20260501213031 14 60 0.0 16.1 0.89 3.89 3.89 100 1011.6
20260501211528 14 68 3.2 25.7 0.51 3.45 3.45 100 1011.2
20260501210027 14 79 9.7 25.7 0.28 3.20 3.20 100 1009.9
20260501201514 14 41 16.1 29.0 0.10 2.92 2.92 100 1010.1
20260501200011 15 67 11.3 25.7 0.18 2.90 2.90 100 1009.8
20260501194516 15 75 9.7 20.9 0.23 2.90 2.90 100 1010.8
20260501193059 15 59 11.3 20.9 0.48 2.87 2.87 100 1010.9
20260501191553 15 61 14.5 20.9 1.12 2.84 2.84 100 1011.0